�N����,����,�g�[���i���ԁj���x,�g�[�����x,��g�[���i���ցj���x,����
 2003/10/01, 0:00,23.3,56,20.9,21.5
 2003/10/01, 0:15,23.2,57,20.9,21.5
 2003/10/01, 0:30,23.1,57,20.8,21.5
 2003/10/01, 0:45,23,57,20.8,21.5
 2003/10/01, 1:00,22.7,57,20.7,21.5
 2003/10/01, 1:15,22.6,57,20.6,21.4
 2003/10/01, 1:30,22.6,57,20.5,21.4
 2003/10/01, 1:45,22.5,57,20.5,21.4
 2003/10/01, 2:00,22.3,57,20.4,21.4
 2003/10/01, 2:15,22.2,57,20.4,21.4
 2003/10/01, 2:30,22.2,57,20.3,21.3
 2003/10/01, 2:45,22,57,20.2,21.3
 2003/10/01, 3:00,21.9,57,20.2,21.3
 2003/10/01, 3:15,21.9,57,20.1,21.3
 2003/10/01, 3:30,21.7,57,20,21.3
 2003/10/01, 3:45,21.6,58,20,21.3
 2003/10/01, 4:00,21.5,58,19.9,21.2
 2003/10/01, 4:15,21.5,58,19.8,21.2
 2003/10/01, 4:30,21.3,58,19.7,21.2
 2003/10/01, 4:45,21.2,58,19.7,21.2
 2003/10/01, 5:00,21.1,58,19.6,21.2
 2003/10/01, 5:15,21,58,19.5,21.1
 2003/10/01, 5:30,21,59,19.5,21.1
 2003/10/01, 5:45,20.9,60.5,19.4,21.1
 2003/10/01, 6:00,20.8,60,19.3,21
 2003/10/01, 6:15,20.7,59,19.2,21
 2003/10/01, 6:30,20.7,59,19.2,21
 2003/10/01, 6:45,20.9,60,19.2,21.6
 2003/10/01, 7:00,21.2,64,19.2,22.2
 2003/10/01, 7:15,21.2,62.5,19.2,22.1
 2003/10/01, 7:30,21.3,61,19.3,22.1
 2003/10/01, 7:45,21.3,60,19.3,22
 2003/10/01, 8:00,21.3,60,19.3,22
 2003/10/01, 8:15,21.5,58.5,19.3,22
 2003/10/01, 8:30,21.6,58,19.4,21.9
 2003/10/01, 8:45,21.7,57.5,19.5,21.9
 2003/10/01, 9:00,21.9,58,19.5,21.8
 2003/10/01, 9:15,22.1,57.5,19.6,21.8
 2003/10/01, 9:30,22.3,56,19.7,21.8
 2003/10/01, 9:45,22.5,56,19.9,21.7
 2003/10/01,10:00,22.6,55,20.1,21.7
 2003/10/01,10:15,22.8,54.5,20.2,21.7
 2003/10/01,10:30,23.1,54,20.4,21.6
 2003/10/01,10:45,23.2,54,20.6,21.6
 2003/10/01,11:00,23.5,53,20.8,21.6
 2003/10/01,11:15,23.8,52.5,21,21.5
 2003/10/01,11:30,23.9,52,21.1,21.5
 2003/10/01,11:45,24.1,52,21.1,21.5
 2003/10/01,12:00,24.3,52,21.3,21.5
 2003/10/01,12:15,24.5,51,21.5,21.4
 2003/10/01,12:30,24.7,51,21.6,21.4
 2003/10/01,12:45,24.8,51,21.7,21.4
 2003/10/01,13:00,24.9,51,21.7,21.4
 2003/10/01,13:15,25.1,50,21.9,21.4
 2003/10/01,13:30,25.3,49,22,21.4
 2003/10/01,13:45,25.4,49,22,21.3
 2003/10/01,14:00,25.4,49,22.1,21.3
 2003/10/01,14:15,25.5,49,22.2,21.3
 2003/10/01,14:30,25.4,49,22.2,21.3
 2003/10/01,14:45,25.5,49,22.3,21.3
 2003/10/01,15:00,25.5,50,22.4,21.3
 2003/10/01,15:15,25.3,50.5,22.4,21.3
 2003/10/01,15:30,25.4,51,22.4,21.3
 2003/10/01,15:45,25.5,51,22.5,21.3
 2003/10/01,16:00,25.3,51,22.5,21.3
 2003/10/01,16:15,25.3,51,22.5,21.3
 2003/10/01,16:30,25.2,52,22.5,21.3
 2003/10/01,16:45,25.1,52,22.5,21.3
 2003/10/01,17:00,25.1,52,22.5,21.3
 2003/10/01,17:15,25,52,22.5,21.3
 2003/10/01,17:30,24.8,52,22.4,21.3
 2003/10/01,17:45,24.7,53,22.5,21.3
 2003/10/01,18:00,24.6,53,22.4,21.3
 2003/10/01,18:15,24.7,53.5,22.4,21.3
 2003/10/01,18:30,24.6,54,22.4,21.3
 2003/10/01,18:45,24.5,54,22.4,21.3
 2003/10/01,19:00,24.5,54,22.4,21.3
 2003/10/01,19:15,24.5,55,22.4,21.3
 2003/10/01,19:30,24.5,55,22.4,21.3
 2003/10/01,19:45,24.4,54.5,22.3,21.3
 2003/10/01,20:00,24.2,54,22.4,21.3
 2003/10/01,20:15,24,54,22.4,21.3
 2003/10/01,20:30,24,54,22.4,21.3
 2003/10/01,20:45,23.9,54,22.4,21.3
 2003/10/01,21:00,23.6,54,22.3,21.4
 2003/10/01,21:15,23.5,55,22.3,21.3
 2003/10/01,21:30,23.3,55,22.2,21.4
 2003/10/01,21:45,23.3,55,22.2,21.4
 2003/10/01,22:00,23.5,55,22.1,21.4
 2003/10/01,22:15,23.6,56,22.2,21.4
 2003/10/01,22:30,23.6,56,22.1,21.4
 2003/10/01,22:45,23.8,56,22.1,21.4
 2003/10/01,23:00,23.9,56,22.1,21.4
 2003/10/01,23:15,23.9,56,22,21.4
 2003/10/01,23:30,23.9,56,22.1,21.4
 2003/10/01,23:45,24,56.5,22,21.4
 2003/10/02, 0:00,23.9,57,22,21.4
 2003/10/02, 0:15,23.8,57.5,22,21.5
 2003/10/02, 0:30,23.7,59,22,21.5
 2003/10/02, 0:45,23.7,59,22,21.5
 2003/10/02, 1:00,23.6,59,21.9,21.5
 2003/10/02, 1:15,23.6,59,21.9,21.5
 2003/10/02, 1:30,23.6,59,21.9,21.5
 2003/10/02, 1:45,23.5,60,21.9,21.5
 2003/10/02, 2:00,23.5,60,21.8,21.5
 2003/10/02, 2:15,23.4,60,21.8,21.5
 2003/10/02, 2:30,23.4,60,21.8,21.5
 2003/10/02, 2:45,23.4,60,21.8,21.5
 2003/10/02, 3:00,23.3,60,21.7,21.5
 2003/10/02, 3:15,23.3,60,21.7,21.5
 2003/10/02, 3:30,23.3,60,21.7,21.5
 2003/10/02, 3:45,23.3,60,21.6,21.5
 2003/10/02, 4:00,23.2,60,21.6,21.5
 2003/10/02, 4:15,23.2,60,21.6,21.5
 2003/10/02, 4:30,23.2,60,21.6,21.5
 2003/10/02, 4:45,23.2,60,21.6,21.5
 2003/10/02, 5:00,23.1,60,21.5,21.5
 2003/10/02, 5:15,23,60.5,21.5,21.5
 2003/10/02, 5:30,23,60,21.5,21.6
 2003/10/02, 5:45,23,60,21.5,21.5
 2003/10/02, 6:00,23,60,21.5,21.5
 2003/10/02, 6:15,23,60,21.5,21.5
 2003/10/02, 6:30,23,60,21.4,21.5
 2003/10/02, 6:45,23,60.5,21.4,21.6
 2003/10/02, 7:00,23.2,61,21.5,21.6
 2003/10/02, 7:15,23.3,61,21.5,21.6
 2003/10/02, 7:30,23.3,61,21.5,21.5
 2003/10/02, 7:45,23.4,60.5,21.5,21.6
 2003/10/02, 8:00,23.5,60,21.5,21.5
 2003/10/02, 8:15,23.5,60,21.5,21.6
 2003/10/02, 8:30,23.7,59,21.6,21.6
 2003/10/02, 8:45,23.7,59,21.7,21.6
 2003/10/02, 9:00,23.7,59,21.7,21.6
 2003/10/02, 9:15,23.6,59,21.8,21.6
 2003/10/02, 9:30,23.6,59,21.7,21.6
 2003/10/02, 9:45,23.8,59,21.8,21.6
 2003/10/02,10:00,23.8,59,21.9,21.6
 2003/10/02,10:15,23.8,59,21.9,21.6
 2003/10/02,10:30,23.8,59,21.9,21.6
 2003/10/02,10:45,24.1,57.5,22,21.6
 2003/10/02,11:00,24.3,57,22.2,21.6
 2003/10/02,11:15,24.2,57,22.2,21.6
 2003/10/02,11:30,24.3,57,22.3,21.7
 2003/10/02,11:45,24.5,56.5,22.4,21.7
 2003/10/02,12:00,24.9,55,22.5,21.7
 2003/10/02,12:15,25,55.5,22.6,21.6
 2003/10/02,12:30,25.3,55,22.8,21.7
 2003/10/02,12:45,25.4,55,23,21.7
 2003/10/02,13:00,25.5,55,23,21.7
 2003/10/02,13:15,25.6,54.5,23.1,21.7
 2003/10/02,13:30,25.5,55,23.1,21.7
 2003/10/02,13:45,25.5,55,23.1,21.7
 2003/10/02,14:00,25.4,56,23.1,21.7
 2003/10/02,14:15,25.4,56,23.1,21.7
 2003/10/02,14:30,25.4,56,23.1,21.7
 2003/10/02,14:45,25.6,56,23.1,21.7
 2003/10/02,15:00,25.7,55,23.2,21.8
 2003/10/02,15:15,25.5,56,23.2,21.8
 2003/10/02,15:30,25.5,56,23.2,21.8
 2003/10/02,15:45,25.5,56.5,23.3,21.8
 2003/10/02,16:00,25.5,57,23.3,21.8
 2003/10/02,16:15,25.5,56,23.3,21.8
 2003/10/02,16:30,25.5,56,23.3,21.8
 2003/10/02,16:45,25.5,57,23.3,21.9
 2003/10/02,17:00,25.5,57,23.3,21.9
 2003/10/02,17:15,25.5,57,23.3,21.9
 2003/10/02,17:30,25.4,57,23.3,21.9
 2003/10/02,17:45,25.3,57,23.2,21.9
 2003/10/02,18:00,25.3,57,23.2,21.9
 2003/10/02,18:15,25.1,58,23.1,21.9
 2003/10/02,18:30,25.1,58,23.1,22
 2003/10/02,18:45,25,58,23.1,22
 2003/10/02,19:00,25,58,23.1,22
 2003/10/02,19:15,25,58,23,22
 2003/10/02,19:30,24.9,58,23,22
 2003/10/02,19:45,24.9,58.5,23,22
 2003/10/02,20:00,24.7,59,22.9,22
 2003/10/02,20:15,24.7,59,22.9,22.1
 2003/10/02,20:30,24.6,59,22.9,22.1
 2003/10/02,20:45,24.5,59,22.8,22.1
 2003/10/02,21:00,24.5,59,22.8,22.1
 2003/10/02,21:15,24.5,59,22.7,22.1
 2003/10/02,21:30,24.4,59,22.7,22.1
 2003/10/02,21:45,24.4,59,22.6,22.1
 2003/10/02,22:00,24.3,59,22.6,22.1
 2003/10/02,22:15,24.4,59,22.6,22.2
 2003/10/02,22:30,24.2,59,22.5,22.2
 2003/10/02,22:45,24.2,59,22.5,22.2
 2003/10/02,23:00,24.1,59,22.4,22.2
 2003/10/02,23:15,24,59,22.4,22.2
 2003/10/02,23:30,23.9,59,22.4,22.2
 2003/10/02,23:45,23.9,59,22.3,22.2
 2003/10/03, 0:00,23.9,59,22.3,22.2
 2003/10/03, 0:15,23.8,59,22.4,22.2
 2003/10/03, 0:30,24,59,22.3,22.2
 2003/10/03, 0:45,24,59,22.3,22.2
 2003/10/03, 1:00,23.9,59,22.3,22.2
 2003/10/03, 1:15,23.9,59,22.3,22.4
 2003/10/03, 1:30,23.9,59,22.2,22.4
 2003/10/03, 1:45,23.8,60,22.1,22.4
 2003/10/03, 2:00,23.7,60,22,22.4
 2003/10/03, 2:15,23.6,60,22,22.4
 2003/10/03, 2:30,23.6,60,22,22.4
 2003/10/03, 2:45,23.5,60,21.9,22.3
 2003/10/03, 3:00,23.3,60,21.9,22.3
 2003/10/03, 3:15,23.3,60,21.8,22.4
 2003/10/03, 3:30,23.3,60,21.8,22.3
 2003/10/03, 3:45,23.2,60,21.7,22.3
 2003/10/03, 4:00,23.1,60,21.6,22.3
 2003/10/03, 4:15,23,60,21.6,22.3
 2003/10/03, 4:30,23,60,21.6,22.3
 2003/10/03, 4:45,22.9,60,21.5,22.3
 2003/10/03, 5:00,22.9,60,21.5,22.3
 2003/10/03, 5:15,22.9,60,21.5,22.3
 2003/10/03, 5:30,22.9,60,21.4,22.3
 2003/10/03, 5:45,22.9,60,21.4,22.3
 2003/10/03, 6:00,22.8,60,21.4,22.3
 2003/10/03, 6:15,22.8,60,21.3,22.3
 2003/10/03, 6:30,22.7,60,21.3,22.2
 2003/10/03, 6:45,22.9,61,21.3,22.3
 2003/10/03, 7:00,22.9,63,21.3,22.3
 2003/10/03, 7:15,22.9,63,21.3,22.2
 2003/10/03, 7:30,22.9,63,21.3,22.2
 2003/10/03, 7:45,22.9,69.5,21.3,22.2
 2003/10/03, 8:00,22.8,70,21.4,22.2
 2003/10/03, 8:15,22.9,70.5,21.4,22.2
 2003/10/03, 8:30,22.9,71,21.5,22.2
 2003/10/03, 8:45,23,70,21.5,22.2
 2003/10/03, 9:00,23.2,70,21.6,22.2
 2003/10/03, 9:15,23.3,69.5,21.6,22.1
 2003/10/03, 9:30,23.3,71,21.8,22.1
 2003/10/03, 9:45,23.2,73,21.8,22.1
 2003/10/03,10:00,23.2,73,21.8,22.2
 2003/10/03,10:15,23.4,71,21.8,22.1
 2003/10/03,10:30,23.4,69,21.9,22.1
 2003/10/03,10:45,23.5,69.5,22,22.1
 2003/10/03,11:00,23.7,67,22,22.1
 2003/10/03,11:15,23.6,68.5,22,22.1
 2003/10/03,11:30,23.8,67,22.1,22.1
 2003/10/03,11:45,24.4,63.5,22.3,22.1
 2003/10/03,12:00,24.7,62,22.6,22.1
 2003/10/03,12:15,24.8,61.5,22.6,22.1
 2003/10/03,12:30,24.7,62,22.7,22.1
 2003/10/03,12:45,25.1,60.5,22.8,22.1
 2003/10/03,13:00,25.4,60,22.8,22.1
 2003/10/03,13:15,25.5,59.5,23,22.1
 2003/10/03,13:30,25.7,59,23.1,22.1
 2003/10/03,13:45,25.8,59,23.1,22.1
 2003/10/03,14:00,25.8,59,23.2,22.1
 2003/10/03,14:15,25.9,58.5,23.2,22.1
 2003/10/03,14:30,26,58,23.3,22.1
 2003/10/03,14:45,26,58,23.3,22.1
 2003/10/03,15:00,26,58,23.3,22.1
 2003/10/03,15:15,26,58,23.4,22.1
 2003/10/03,15:30,25.9,58,23.4,22.1
 2003/10/03,15:45,25.9,57.5,23.4,22.1
 2003/10/03,16:00,25.8,58,23.4,22.1
 2003/10/03,16:15,25.8,57.5,23.4,22.1
 2003/10/03,16:30,25.7,58,23.4,22.1
 2003/10/03,16:45,25.5,58,23.3,22.1
 2003/10/03,17:00,25.5,57,23.2,22.1
 2003/10/03,17:15,25.4,58,23.2,22.2
 2003/10/03,17:30,25.3,59,23.1,22.1
 2003/10/03,17:45,25.3,59.5,23.1,22.1
 2003/10/03,18:00,25.1,60,23,22.2
 2003/10/03,18:15,25,60,23,22.1
 2003/10/03,18:30,25,60,22.8,22.2
 2003/10/03,18:45,24.9,60,22.8,22.2
 2003/10/03,19:00,24.8,60,22.7,22.2
 2003/10/03,19:15,24.7,59.5,22.6,22.2
 2003/10/03,19:30,24.6,60,22.6,22.2
 2003/10/03,19:45,24.5,59,22.5,22.2
 2003/10/03,20:00,24.4,59,22.5,22.2
 2003/10/03,20:15,24.4,59,22.4,22.2
 2003/10/03,20:30,24.2,60,22.4,22.2
 2003/10/03,20:45,24.2,59.5,22.3,22.2
 2003/10/03,21:00,24.1,60,22.2,22.2
 2003/10/03,21:15,24,59.5,22.2,22.2
 2003/10/03,21:30,23.9,57,22.2,22.2
 2003/10/03,21:45,23.9,56,22.1,22.2
 2003/10/03,22:00,23.4,52,22,22.2
 2003/10/03,22:15,23.3,53,21.9,22.1
 2003/10/03,22:30,23.6,54,21.9,22.2
 2003/10/03,22:45,23.7,55.5,22,22.1
 2003/10/03,23:00,23.7,56,21.9,22.1
 2003/10/03,23:15,23.6,55.5,21.8,22.1
 2003/10/03,23:30,23.6,56,21.8,22.1
 2003/10/03,23:45,23.5,57,21.8,22.1
 2003/10/04, 0:00,23.4,58,21.7,22.1
 2003/10/04, 0:15,23.4,58,21.7,22.1
 2003/10/04, 0:30,23.3,58,21.6,22.1
 2003/10/04, 0:45,23.3,58,21.6,22.1
 2003/10/04, 1:00,23.3,58,21.5,22.1
 2003/10/04, 1:15,23.2,58.5,21.5,22
 2003/10/04, 1:30,23.2,59,21.4,22
 2003/10/04, 1:45,23.1,59,21.4,22
 2003/10/04, 2:00,23.1,59,21.3,22
 2003/10/04, 2:15,23,59,21.2,22
 2003/10/04, 2:30,23,59,21.2,22
 2003/10/04, 2:45,22.9,59,21.1,22
 2003/10/04, 3:00,22.8,59,21.1,22
 2003/10/04, 3:15,22.7,59,21,22
 2003/10/04, 3:30,22.7,59,21,21.9
 2003/10/04, 3:45,22.6,59,21,21.9
 2003/10/04, 4:00,22.6,59,20.9,21.9
 2003/10/04, 4:15,22.5,59,20.9,21.9
 2003/10/04, 4:30,22.5,59,20.8,21.9
 2003/10/04, 4:45,22.5,59.5,20.8,21.9
 2003/10/04, 5:00,22.3,60,20.7,21.9
 2003/10/04, 5:15,22.3,60,20.7,21.8
 2003/10/04, 5:30,22.3,61,20.6,21.8
 2003/10/04, 5:45,22.2,62.5,20.6,21.8
 2003/10/04, 6:00,22.1,61,20.5,21.8
 2003/10/04, 6:15,22,61,20.5,21.8
 2003/10/04, 6:30,22,61,20.5,21.8
 2003/10/04, 6:45,22,60.5,20.4,21.7
 2003/10/04, 7:00,21.9,60,20.4,21.7
 2003/10/04, 7:15,22,60,20.4,21.7
 2003/10/04, 7:30,22.2,60,20.4,21.7
 2003/10/04, 7:45,22.1,58,20.3,21.7
 2003/10/04, 8:00,22.4,57,20.4,21.6
 2003/10/04, 8:15,22.6,58,20.4,21.6
 2003/10/04, 8:30,22.9,57,20.3,21.6
 2003/10/04, 8:45,23.2,57,20.5,21.6
 2003/10/04, 9:00,23.3,58,20.4,21.6
 2003/10/04, 9:15,23.5,57.5,20.5,21.5
 2003/10/04, 9:30,23.6,57,20.6,21.6
 2003/10/04, 9:45,23.8,55.5,20.8,21.5
 2003/10/04,10:00,24,55,20.9,21.5
 2003/10/04,10:15,24.1,53,21.1,21.5
 2003/10/04,10:30,24.2,52,21.2,21.5
 2003/10/04,10:45,24.7,51,21.5,21.5
 2003/10/04,11:00,24.9,51,21.6,21.5
 2003/10/04,11:15,25,51,21.8,21.5
 2003/10/04,11:30,25.2,50,21.9,21.5
 2003/10/04,11:45,25.1,50,22,21.4
 2003/10/04,12:00,25.1,50,22.1,21.4
 2003/10/04,12:15,24.9,50.5,22,21.4
 2003/10/04,12:30,24.9,51,21.9,21.4
 2003/10/04,12:45,25,51.5,22,21.4
 2003/10/04,13:00,25.5,43,22.1,21.4
 2003/10/04,13:15,25.1,41,22.2,21.4
 2003/10/04,13:30,25.4,42,22.3,21.4
 2003/10/04,13:45,24.7,44,22.3,21.4
 2003/10/04,14:00,24.8,44,22.3,21.4
 2003/10/04,14:15,24.4,43,22.4,21.4
 2003/10/04,14:30,24.2,44,22.4,21.4
 2003/10/04,14:45,24.2,45,22.4,21.4
 2003/10/04,15:00,23.9,46,22.4,21.4
 2003/10/04,15:15,23.6,47,22.3,21.4
 2003/10/04,15:30,23.9,47,22,21.4
 2003/10/04,15:45,23.6,48,22,21.4
 2003/10/04,16:00,23.3,47,21.8,21.4
 2003/10/04,16:15,22.8,47.5,21.4,21.4
 2003/10/04,16:30,22.7,48,21.3,21.4
 2003/10/04,16:45,22.8,48,21.4,21.4
 2003/10/04,17:00,22.5,49,21.6,21.4
 2003/10/04,17:15,22.5,48.5,21.5,21.4
 2003/10/04,17:30,22.8,49,21.5,21.4
 2003/10/04,17:45,22.9,48,21.5,21.4
 2003/10/04,18:00,22.9,48,21.4,21.4
 2003/10/04,18:15,22.9,48,21.4,21.4
 2003/10/04,18:30,22.9,47,21.2,21.4
 2003/10/04,18:45,22.8,48,21.1,21.4
 2003/10/04,19:00,23,48,20.8,21.4
 2003/10/04,19:15,22.9,48,20.4,21.4
 2003/10/04,19:30,22.8,47,20.1,21.4
 2003/10/04,19:45,23,48,20,21.4
 2003/10/04,20:00,23.2,48,20.1,21.4
 2003/10/04,20:15,22.8,47,19.9,21.3
 2003/10/04,20:30,22.6,47,19.7,21.2
 2003/10/04,20:45,22.5,48,19.5,21.2
 2003/10/04,21:00,22.2,48,19.3,21.2
 2003/10/04,21:15,22.5,48,19.4,21.2
 2003/10/04,21:30,22.5,48,19.2,21.2
 2003/10/04,21:45,22.4,48,18.9,21.2
 2003/10/04,22:00,22.3,49,18.8,21.2
 2003/10/04,22:15,22.2,48.5,19,20.9
 2003/10/04,22:30,22.1,49,19.4,20.6
 2003/10/04,22:45,22,49.5,19.4,20.6
 2003/10/04,23:00,21.9,49,19.4,20.6
 2003/10/04,23:15,21.6,50,19.4,20.6
 2003/10/04,23:30,22,52,19.2,20.7
 2003/10/04,23:45,21.9,51,19.1,20.7
 2003/10/05, 0:00,21.8,52,19,20.7
 2003/10/05, 0:15,21.7,52,18.9,20.6
 2003/10/05, 0:30,21.5,53,18.8,20.7
 2003/10/05, 0:45,21.4,52.5,18.8,20.6
 2003/10/05, 1:00,21.3,53,18.8,20.6
 2003/10/05, 1:15,21.2,53,18.6,20.6
 2003/10/05, 1:30,21.1,53,18.6,20.6
 2003/10/05, 1:45,21,53,18.5,20.6
 2003/10/05, 2:00,20.9,53,18.5,20.6
 2003/10/05, 2:15,20.9,53,18.4,20.6
 2003/10/05, 2:30,20.7,53,18.4,20.5
 2003/10/05, 2:45,20.6,53.5,18.3,20.5
 2003/10/05, 3:00,20.5,54,18.3,20.5
 2003/10/05, 3:15,20.5,54,18.2,20.5
 2003/10/05, 3:30,20.4,54,18,20.5
 2003/10/05, 3:45,20.4,54,18,20.5
 2003/10/05, 4:00,20.3,54,17.8,20.5
 2003/10/05, 4:15,20.2,54,17.9,20.4
 2003/10/05, 4:30,20.2,54,17.9,20.4
 2003/10/05, 4:45,20.1,54,17.9,20.4
 2003/10/05, 5:00,20,54,17.8,20.4
 2003/10/05, 5:15,20,54,17.8,20.4
 2003/10/05, 5:30,19.9,55,17.7,20.3
 2003/10/05, 5:45,19.9,55,17.6,20.3
 2003/10/05, 6:00,19.8,55,17.6,20.3
 2003/10/05, 6:15,19.8,55,17.6,20.3
 2003/10/05, 6:30,19.7,55,17.6,20.3
 2003/10/05, 6:45,19.7,55,17.5,20.2
 2003/10/05, 7:00,19.7,55,17.5,20.2
 2003/10/05, 7:15,19.6,55,17.5,20.2
 2003/10/05, 7:30,19.8,55,17.6,20.1
 2003/10/05, 7:45,20,56,17.6,20.1
 2003/10/05, 8:00,20.3,55,17.7,20.1
 2003/10/05, 8:15,20.6,57,17.9,20.1
 2003/10/05, 8:30,21.1,57,18,21.3
 2003/10/05, 8:45,21.2,57.5,18.1,21.2
 2003/10/05, 9:00,20.9,59,18.3,21.2
 2003/10/05, 9:15,20.9,58.5,18.4,21.1
 2003/10/05, 9:30,21.3,58,18.6,21.1
 2003/10/05, 9:45,21.5,58,18.6,21
 2003/10/05,10:00,21.7,57,18.8,21
 2003/10/05,10:15,21.9,56.5,19,21
 2003/10/05,10:30,22.1,56,19.2,20.9
 2003/10/05,10:45,22.1,56,19.4,20.9
 2003/10/05,11:00,22.1,56,19.5,20.9
 2003/10/05,11:15,22.3,55.5,19.5,20.9
 2003/10/05,11:30,22.6,55,19.7,20.8
 2003/10/05,11:45,22.6,53.5,20,20.8
 2003/10/05,12:00,22.8,54,20,20.7
 2003/10/05,12:15,23.2,53.5,20.1,20.8
 2003/10/05,12:30,23.7,52,20.2,20.7
 2003/10/05,12:45,23.5,52.5,20.3,20.7
 2003/10/05,13:00,23.7,52,20.4,20.6
 2003/10/05,13:15,23.5,52,20.4,20.7
 2003/10/05,13:30,23.6,52,20.5,20.6
 2003/10/05,13:45,23.5,52.5,20.5,20.6
 2003/10/05,14:00,23.4,52,20.6,20.6
 2003/10/05,14:15,23.4,52.5,20.6,20.6
 2003/10/05,14:30,23.4,52,20.6,20.6
 2003/10/05,14:45,23.7,53,20.6,20.6
 2003/10/05,15:00,23.6,52,20.8,21.4
 2003/10/05,15:15,23.5,49,20.8,21.4
 2003/10/05,15:30,23.3,47,20.8,21.3
 2003/10/05,15:45,23.1,46.5,20.8,21.3
 2003/10/05,16:00,23.1,46,20.7,21.3
 2003/10/05,16:15,23.1,46,20.7,21.3
 2003/10/05,16:30,22.9,46,20.6,21.2
 2003/10/05,16:45,22.9,47,20.6,21.2
 2003/10/05,17:00,22.8,47,20.6,21.2
 2003/10/05,17:15,22.8,48,20.5,21.1
 2003/10/05,17:30,22.5,48,20.3,20.9
 2003/10/05,17:45,22.6,48,20.2,20.9
 2003/10/05,18:00,22.6,47,20.3,20.9
 2003/10/05,18:15,22.7,49.5,20.4,20.9
 2003/10/05,18:30,22.9,50,20.3,20.9
 2003/10/05,18:45,23,50.5,20.3,20.9
 2003/10/05,19:00,23,52,20.3,20.9
 2003/10/05,19:15,23.1,52.5,20.3,20.9
 2003/10/05,19:30,23.3,52,20.4,20.8
 2003/10/05,19:45,23.2,52,20.4,20.9
 2003/10/05,20:00,23.1,52,20.4,20.8
 2003/10/05,20:15,23.2,53,20.4,20.9
 2003/10/05,20:30,23.2,53,20.3,20.8
 2003/10/05,20:45,23.2,53,20.2,20.8
 2003/10/05,21:00,23.3,53,20.2,20.8
 2003/10/05,21:15,23,53,20.2,20.8
 2003/10/05,21:30,22.9,54,20.2,20.8
 2003/10/05,21:45,23,54,20.1,20.8
 2003/10/05,22:00,23,54,20.1,20.8
 2003/10/05,22:15,23,53.5,20.1,20.8
 2003/10/05,22:30,22.9,54,20,20.8
 2003/10/05,22:45,23,54,20,20.8
 2003/10/05,23:00,22.9,54,20,20.8
 2003/10/05,23:15,22.9,54,20.1,20.8
 2003/10/05,23:30,22.9,54,20.1,20.8
 2003/10/05,23:45,22.9,54,20.1,20.8
 2003/10/06, 0:00,22.7,54,20.1,20.8
 2003/10/06, 0:15,22.6,54,20.1,20.7
 2003/10/06, 0:30,22.6,54,20.1,20.7
 2003/10/06, 0:45,22.5,54,20,20.7
 2003/10/06, 1:00,22.5,54,20,20.7
 2003/10/06, 1:15,22.4,54,20,20.7
 2003/10/06, 1:30,22.4,54,19.9,20.7
 2003/10/06, 1:45,22.3,54,19.9,20.7
 2003/10/06, 2:00,22.2,54,19.9,20.7
 2003/10/06, 2:15,22.1,54,19.9,20.7
 2003/10/06, 2:30,22.1,54,19.8,20.7
 2003/10/06, 2:45,22,54,19.8,20.7
 2003/10/06, 3:00,21.9,54,19.8,20.7
 2003/10/06, 3:15,21.8,55,19.7,20.7
 2003/10/06, 3:30,21.8,55,19.6,20.7
 2003/10/06, 3:45,21.8,55,19.6,20.6
 2003/10/06, 4:00,21.8,55,19.6,20.6
 2003/10/06, 4:15,21.8,54.5,19.6,20.6
 2003/10/06, 4:30,21.6,55,19.6,20.6
 2003/10/06, 4:45,21.6,55,19.6,20.6
 2003/10/06, 5:00,21.6,55,19.6,20.6
 2003/10/06, 5:15,21.5,55,19.6,20.5
 2003/10/06, 5:30,21.5,55,19.6,20.5
 2003/10/06, 5:45,21.5,55,19.5,20.5
 2003/10/06, 6:00,21.4,55,19.4,20.5
 2003/10/06, 6:15,21.4,55,19.5,20.5
 2003/10/06, 6:30,21.3,56,19.4,20.5
 2003/10/06, 6:45,21.3,58,19.1,20.5
 2003/10/06, 7:00,21.7,62,19.2,20.5
 2003/10/06, 7:15,21.5,60.5,19.1,20.4
 2003/10/06, 7:30,21.5,61,19.1,20.4
 2003/10/06, 7:45,21.4,65.5,19.1,20.4
 2003/10/06, 8:00,20.9,69,19,20.4
 2003/10/06, 8:15,20.9,69,18.9,20.4
 2003/10/06, 8:30,20.7,68,18.9,20.4
 2003/10/06, 8:45,20.7,68,18.9,20.4
 2003/10/06, 9:00,20.6,68,18.9,20.3
 2003/10/06, 9:15,20.5,68.5,18.9,20.4
 2003/10/06, 9:30,20.4,69,18.8,20.4
 2003/10/06, 9:45,20.4,69,18.8,20.3
 2003/10/06,10:00,20.3,69,18.7,20.3
 2003/10/06,10:15,20.3,69.5,18.7,20.3
 2003/10/06,10:30,20.2,69,18.6,20.3
 2003/10/06,10:45,20.2,70,18.5,20.2
 2003/10/06,11:00,20.1,70,18.6,20.2
 2003/10/06,11:15,20,70,18.5,20.2
 2003/10/06,11:30,20.1,69,18.4,20.2
 2003/10/06,11:45,20,70,18.4,20.2
 2003/10/06,12:00,20,70,18.4,20.2
 2003/10/06,12:15,20,70,18.4,20.2
 2003/10/06,12:30,19.9,70,18.5,20.1
 2003/10/06,12:45,19.9,70.5,18.5,20.1
 2003/10/06,13:00,19.9,71,18.5,20.1
 2003/10/06,13:15,19.9,71,18.4,20.1
 2003/10/06,13:30,19.9,71,18.4,20.1
 2003/10/06,13:45,19.9,70.5,18.5,20
 2003/10/06,14:00,19.9,71,18.4,20
 2003/10/06,14:15,19.9,70,18.4,20
 2003/10/06,14:30,19.9,70,18.4,20
 2003/10/06,14:45,19.8,69,18.5,20
 2003/10/06,15:00,19.8,69,18.4,20
 2003/10/06,15:15,19.8,68,18.4,20
 2003/10/06,15:30,19.8,69,18.4,20
 2003/10/06,15:45,19.8,68,18.4,20
 2003/10/06,16:00,19.8,68,18.4,19.9
 2003/10/06,16:15,19.8,67,18.4,19.9
 2003/10/06,16:30,19.7,67,18.3,19.9
 2003/10/06,16:45,19.6,67.5,18.3,19.9
 2003/10/06,17:00,19.6,67,18.3,19.9
 2003/10/06,17:15,19.6,66.5,18.3,19.9
 2003/10/06,17:30,19.6,66,18.3,19.8
 2003/10/06,17:45,19.6,66,18.2,19.8
 2003/10/06,18:00,19.6,68,18.2,19.8
 2003/10/06,18:15,19.5,66.5,18.1,19.8
 2003/10/06,18:30,19.4,65,18.1,19.8
 2003/10/06,18:45,19.4,65,18,19.8
 2003/10/06,19:00,19.3,65,17.9,19.8
 2003/10/06,19:15,19.2,65,18,19.8
 2003/10/06,19:30,19.2,65,17.8,19.7
 2003/10/06,19:45,19.1,65,17.7,19.7
 2003/10/06,20:00,19.1,64,17.7,19.7
 2003/10/06,20:15,19,64,17.6,19.7
 2003/10/06,20:30,19,64,17.7,19.7
 2003/10/06,20:45,19,64,17.6,19.6
 2003/10/06,21:00,18.9,64,17.6,19.6
 2003/10/06,21:15,18.8,64,17.6,19.6
 2003/10/06,21:30,18.9,64,17.6,19.6
 2003/10/06,21:45,19,64,17.7,19.6
 2003/10/06,22:00,19.1,64,17.6,19.6
 2003/10/06,22:15,19.2,63,17.5,19.6
 2003/10/06,22:30,19.2,64,17.5,19.8
 2003/10/06,22:45,19.1,64,17.5,19.8
 2003/10/06,23:00,19.5,65,17.5,19.8
 2003/10/06,23:15,19.5,64,17.5,19.7
 2003/10/06,23:30,19.5,64,17.5,19.7
 2003/10/06,23:45,19.2,64,17.4,19.7
 2003/10/07, 0:00,19.1,64,17.3,19.7
 2003/10/07, 0:15,19,64,17.3,19.7
 2003/10/07, 0:30,18.9,64,17.3,19.6
 2003/10/07, 0:45,18.9,64,17.2,19.6
 2003/10/07, 1:00,18.8,64,17.3,19.6
 2003/10/07, 1:15,18.7,64,17.2,20.5
 2003/10/07, 1:30,18.7,63,17.1,20.5
 2003/10/07, 1:45,18.6,63,17.1,20.5
 2003/10/07, 2:00,18.6,63,17.1,20.4
 2003/10/07, 2:15,18.5,63,17,20.4
 2003/10/07, 2:30,18.5,63,17,20.3
 2003/10/07, 2:45,18.4,63,17,20.3
 2003/10/07, 3:00,18.4,63,17,20.2
 2003/10/07, 3:15,18.3,63,16.9,20.2
 2003/10/07, 3:30,18.3,63,16.8,20.1
 2003/10/07, 3:45,18.2,63,16.9,20.1
 2003/10/07, 4:00,18.2,63,16.8,20
 2003/10/07, 4:15,18.2,63,16.8,20
 2003/10/07, 4:30,18.1,63,16.8,20
 2003/10/07, 4:45,18.1,63,16.7,20
 2003/10/07, 5:00,18.1,63,16.8,19.9
 2003/10/07, 5:15,18,63,16.7,19.9
 2003/10/07, 5:30,18,63,16.7,19.8
 2003/10/07, 5:45,18,63,16.6,19.8
 2003/10/07, 6:00,17.9,63,16.6,19.8
 2003/10/07, 6:15,17.9,63,16.5,19.8
 2003/10/07, 6:30,17.9,63,16.5,19.7
 2003/10/07, 6:45,18.1,64.5,16.6,20
 2003/10/07, 7:00,18.3,67,16.8,20.1
 2003/10/07, 7:15,18.5,68,16.9,20.1
 2003/10/07, 7:30,18.5,67,17,20
 2003/10/07, 7:45,18.6,65.5,17,20
 2003/10/07, 8:00,18.6,65,16.9,20
 2003/10/07, 8:15,18.6,64.5,17,20
 2003/10/07, 8:30,18.6,64,16.9,19.9
 2003/10/07, 8:45,18.6,64,17,19.9
 2003/10/07, 9:00,18.6,64,17.1,19.8
 2003/10/07, 9:15,18.6,63.5,17.1,19.8
 2003/10/07, 9:30,18.7,63,17.3,19.8
 2003/10/07, 9:45,18.7,63,17.2,19.8
 2003/10/07,10:00,18.8,63,17.3,19.7
 2003/10/07,10:15,18.9,63,17.4,19.7
 2003/10/07,10:30,18.9,63,17.5,19.7
 2003/10/07,10:45,19,62,17.6,19.6
 2003/10/07,11:00,19.2,62,17.7,19.6
 2003/10/07,11:15,19.2,61.5,17.9,19.6
 2003/10/07,11:30,19.5,61,17.9,19.6
 2003/10/07,11:45,19.5,61,18,19.5
 2003/10/07,12:00,19.6,61,18.1,19.5
 2003/10/07,12:15,19.8,60,18.1,19.5
 2003/10/07,12:30,19.9,60,18.2,19.5
 2003/10/07,12:45,20,59.5,18.2,19.5
 2003/10/07,13:00,20.1,59,18.3,19.4
 2003/10/07,13:15,20.1,59,18.4,19.4
 2003/10/07,13:30,20.2,59,18.4,19.4
 2003/10/07,13:45,20.1,59,18.5,19.4
 2003/10/07,14:00,20.2,59,18.5,19.4
 2003/10/07,14:15,20.2,59,18.6,19.4
 2003/10/07,14:30,20.3,59,18.7,19.3
 2003/10/07,14:45,20.5,58.5,18.6,19.4
 2003/10/07,15:00,20.5,58,18.8,19.3
 2003/10/07,15:15,20.5,58.5,18.8,19.3
 2003/10/07,15:30,20.5,59,18.8,19.3
 2003/10/07,15:45,20.6,58,18.9,19.3
 2003/10/07,16:00,20.5,58,18.9,19.3
 2003/10/07,16:15,20.5,58.5,18.9,19.3
 2003/10/07,16:30,20.5,59,18.9,19.3
 2003/10/07,16:45,20.5,58.5,18.9,19.3
 2003/10/07,17:00,20.5,58,18.9,19.2
 2003/10/07,17:15,20.5,58.5,18.9,19.2
 2003/10/07,17:30,20.4,59,18.9,19.3
 2003/10/07,17:45,20.4,59,18.9,19.2
 2003/10/07,18:00,20.3,59,18.9,19.2
 2003/10/07,18:15,20.3,59,18.9,19.2
 2003/10/07,18:30,20.3,59,18.9,19.2